TimeEST,TemperatureF,Dew PointF,Humidity,Sea Level PressureIn,VisibilityMPH,Wind Direction,Wind SpeedMPH,Gust SpeedMPH,PrecipitationIn,Events,Conditions,WindDirDegrees,DateUTC
12:35 AM,33.8,30.2,87,30.02,10.0,NNW,3.5,-,N/A,,Overcast,340,2013-03-06 05:35:00
12:53 AM,34.0,32.0,92,30.02,10.0,North,3.5,-,N/A,,Overcast,360,2013-03-06 05:53:00
1:31 AM,35.6,32.0,87,30.02,10.0,North,3.5,-,N/A,,Mostly Cloudy,10,2013-03-06 06:31:00
1:44 AM,35.6,32.0,87,30.02,10.0,Calm,Calm,-,N/A,,Overcast,0,2013-03-06 06:44:00
1:53 AM,35.1,32.0,89,30.02,10.0,Calm,Calm,-,N/A,,Overcast,0,2013-03-06 06:53:00
2:53 AM,35.1,33.1,92,30.02,10.0,Calm,Calm,-,0.00,Rain,Light Rain,0,2013-03-06 07:53:00
3:53 AM,35.1,34.0,96,30.02,10.0,NNE,3.5,-,0.01,,Overcast,20,2013-03-06 08:53:00
4:53 AM,37.0,34.0,89,30.01,10.0,NE,5.8,-,0.00,,Overcast,40,2013-03-06 09:53:00
5:19 AM,35.6,35.6,100,30.01,10.0,NNE,5.8,-,N/A,,Overcast,30,2013-03-06 10:19:00
5:31 AM,37.4,35.6,93,30.00,8.0,NE,8.1,-,0.00,Rain,Light Rain,40,2013-03-06 10:31:00
5:43 AM,37.4,35.6,93,30.00,5.0,NE,11.5,-,0.00,Rain,Light Rain,50,2013-03-06 10:43:00
5:53 AM,37.0,35.1,93,30.01,10.0,ENE,9.2,-,0.00,Rain,Light Rain,60,2013-03-06 10:53:00
6:42 AM,37.4,35.6,93,30.02,10.0,ENE,10.4,-,0.00,,Overcast,60,2013-03-06 11:42:00
6:53 AM,37.9,35.1,89,30.03,10.0,ENE,11.5,-,0.00,,Overcast,60,2013-03-06 11:53:00
7:39 AM,39.2,35.6,87,30.02,4.0,ENE,17.3,28.8,0.00,Rain,Light Rain,60,2013-03-06 12:39:00
7:53 AM,39.0,35.1,86,30.02,8.0,ENE,16.1,26.5,0.00,Rain,Light Rain,70,2013-03-06 12:53:00
8:01 AM,39.2,35.6,87,30.02,7.0,ENE,18.4,26.5,0.00,Rain,Light Rain,60,2013-03-06 13:01:00
8:53 AM,39.0,34.0,82,30.03,10.0,ENE,23.0,29.9,0.00,,Overcast,70,2013-03-06 13:53:00
9:28 AM,39.2,33.8,81,30.04,10.0,ENE,20.7,34.5,0.00,,Overcast,60,2013-03-06 14:28:00
9:53 AM,39.9,32.0,73,30.03,9.0,NE,21.9,29.9,0.00,Rain,Light Rain,50,2013-03-06 14:53:00
10:53 AM,39.9,30.9,70,30.02,10.0,NE,21.9,31.1,0.00,,Overcast,50,2013-03-06 15:53:00
11:53 AM,39.9,32.0,73,30.02,7.0,ENE,18.4,29.9,0.00,Rain,Light Rain,60,2013-03-06 16:53:00
12:17 PM,42.8,32.0,66,30.01,10.0,ENE,19.6,31.1,0.00,Rain,Light Rain,60,2013-03-06 17:17:00
12:24 PM,41.0,33.8,76,30.01,9.0,ENE,21.9,31.1,0.00,Rain,Light Rain,70,2013-03-06 17:24:00
12:53 PM,39.9,33.1,77,30.00,6.0,ENE,18.4,31.1,0.00,Rain,Light Rain,70,2013-03-06 17:53:00
1:53 PM,41.0,34.0,76,29.98,10.0,NE,24.2,33.4,0.00,,Overcast,50,2013-03-06 18:53:00
2:53 PM,39.9,32.0,73,29.98,9.0,NE,24.2,35.7,0.00,,Overcast,50,2013-03-06 19:53:00
3:53 PM,37.9,32.0,79,29.98,4.0,ENE,18.4,31.1,0.00,Rain,Light Rain,60,2013-03-06 20:53:00
4:05 PM,37.4,33.8,87,29.97,2.0,NE,16.1,26.5,0.00,Rain,Light Rain,50,2013-03-06 21:05:00
4:22 PM,37.4,33.8,87,29.98,1.8,NE,18.4,32.2,0.00,Rain,Light Rain,50,2013-03-06 21:22:00
4:33 PM,37.4,33.8,87,29.98,1.8,NE,18.4,29.9,0.00,Rain,Light Rain,50,2013-03-06 21:33:00
4:53 PM,37.0,34.0,89,29.97,1.5,NE,23.0,32.2,0.01,Rain,Light Rain,50,2013-03-06 21:53:00
5:18 PM,37.4,33.8,87,29.96,2.5,NE,19.6,32.2,0.00,Rain,Light Rain,40,2013-03-06 22:18:00
5:28 PM,37.4,33.8,87,29.98,3.0,NE,20.7,28.8,0.00,Rain,Light Rain,50,2013-03-06 22:28:00
5:53 PM,37.0,34.0,89,29.98,6.0,NE,19.6,32.2,0.00,Rain,Light Rain,50,2013-03-06 22:53:00
6:53 PM,37.0,34.0,89,29.97,5.0,NE,19.6,26.5,0.00,Rain,Light Rain,40,2013-03-06 23:53:00
7:53 PM,37.0,33.1,86,29.96,8.0,NE,23.0,40.3,0.00,,Overcast,40,2013-03-07 00:53:00
8:17 PM,37.4,33.8,87,29.95,6.0,NE,23.0,29.9,0.00,Rain,Light Rain,40,2013-03-07 01:17:00
8:53 PM,37.0,33.1,86,29.95,7.0,NE,18.4,36.8,0.00,,Overcast,40,2013-03-07 01:53:00
9:33 PM,37.4,33.8,87,29.94,8.0,NNE,21.9,34.5,N/A,,Overcast,30,2013-03-07 02:33:00
9:53 PM,37.0,32.0,82,29.94,10.0,NE,27.6,42.6,N/A,,Overcast,40,2013-03-07 02:53:00
10:53 PM,37.0,33.1,86,29.94,7.0,NE,25.3,34.5,N/A,,Overcast,40,2013-03-07 03:53:00
11:38 PM,37.4,33.8,87,29.92,6.0,NNE,23.0,43.7,0.00,,Overcast,30,2013-03-07 04:38:00
11:53 PM,37.0,33.1,86,29.93,6.0,NNE,24.2,39.1,0.00,Rain,Light Rain,30,2013-03-07 04:53:00